Location: Plymouth
(43.7490°N, 87.9770°W)
Time: 13:45:23
(UTC-06:00)

Daily predictions for brighter satellites

Satellite Brightness Start Highest point End
(mag) Time Altitude Azimuth Time Altitude Azimuth Time Altitude Azimuth
ALOS 2.3 17:48:28 10° SSE 17:53:06 69° ENE 17:57:46 10° N
Cosmos 2123 Rocket 4.2 17:49:17 10° S 17:55:28 81° W 18:01:41 10° N
Lacrosse 5 2.0 17:51:14 10° NW 17:56:19 80° SW 18:01:21 10° SE
ATLAS 3B R/B 3.1 17:50:17 10° SW 17:57:32 72° NW 18:04:30 10° NNE
Cosmos 2219 Rocket 3.0 17:52:01 10° NNW 17:57:37 59° WSW 18:03:08 10° S
Cosmos 44 4.0 17:53:15 10° NNW 17:57:51 36° NE 18:02:39 10° ESE
CZ-4C R/B 4.4 17:54:39 10° NNW 17:58:48 17° NNE 18:03:16 10° ENE
NOSS 3-2 (A) 3.5 17:52:59 10° SSW 17:58:53 78° ESE 18:05:27 10° NE
MOS 1 4.3 17:53:31 10° SSE 17:59:08 69° ENE 18:04:47 10° N
Cosmos 405 3.8 17:56:17 10° SSE 17:59:21 30° E 18:02:28 10° NNE
YAOGAN 1 2.9 17:55:57 10° S 18:00:16 74° WSW 18:04:37 10° NNW
NOAA 12 4.1 17:56:07 10° SSE 18:01:22 68° ENE 18:06:41 10° N
NOSS 0 Rocket 4.2 17:55:42 10° NNW 18:01:54 78° WSW 18:08:06 10° SSE
Cosmos 1624 Rocket 4.1 17:58:27 10° NNW 18:03:43 84° WSW 18:08:54 10° SSE
Cosmos 1862 4.1 18:00:39 10° SSW 18:04:33 57° W 18:08:30 10° N
BREEZE-M R/B 3.3 18:03:03 10° NW 18:05:05 41° NNE 18:09:18 10° E
SJ-6B 4.2 18:03:16 10° ESE 18:05:52 18° ENE 18:08:29 10° NNE
Cosmos 1733 Rocket 3.2 18:02:10 10° SSE 18:06:20 50° E 18:10:32 10° NNE
Okean 3 4.2 18:02:37 10° NNE 18:06:22 31° ENE 18:10:05 10° SE
CZ-2C R/B 4.0 18:04:35 10° N 18:09:03 69° WNW 18:13:26 10° SSW
Cosmos 2219 4.1 18:05:08 10° SW 18:10:35 50° WNW 18:16:05 10° NNE
CZ-4 R/B 3.2 18:06:49 10° SSW 18:10:36 37° W 18:14:19 10° NNW
Cosmos 2237 Rocket 2.3 18:06:09 10° NNW 18:11:49 88° WSW 18:17:26 10° SSE
Cosmos 2227 Rocket 2.2 18:06:21 10° SSW 18:11:57 71° ESE 18:17:36 10° NNE
SKYMED 2 3.7 18:08:44 10° N 18:13:05 79° WNW 18:17:25 10° SSW
SL-16 R/B 2.6 18:09:28 10° NNW 18:14:53 43° ENE 18:20:15 10° SE
USA 238 DEB 4.4 18:08:18 10° SW 18:15:03 56° NW 18:21:56 10° NNE
USA 238 4.4 18:08:24 10° SW 18:15:09 56° NW 18:22:02 10° NNE
MOS 1-B Rocket 4.1 18:10:08 10° SSE 18:16:36 84° WSW 18:22:23 10° NNW
FENGYUN 3A 3.9 18:12:10 10° S 18:17:34 76° WSW 18:23:00 10° NNW
Resurs 01 Rocket 3.3 18:19:13 13° E 18:20:34 15° ENE 18:22:59 10° NNE
H-2A R/B 2.8 18:18:24 10° SSE 18:22:15 60° ENE 18:26:07 10° N
Cosmos 2084 Rocket 3.8 18:18:20 10° SW 18:22:42 68° NW 18:26:52 10° NNE
Cosmos 1975 Rocket 4.4 18:20:52 10° NNE 18:24:08 20° ENE 18:26:50 12° ESE
Cosmos 2297 Rocket 2.2 18:20:26 10° SSW 18:26:04 79° ESE 18:31:46 10° NNE
CZ-3 Stage 3 4.2 18:28:00 10° WSW 18:31:02 15° SSW 18:33:00 10° SSE
DNEPR-1 R/B 3.6 18:27:39 10° SW 18:31:50 77° NW 18:36:14 10° NNE
Thor Agena Rocket 4.2 18:27:33 10° NE 18:32:02 30° E 18:36:26 10° SSE
USA 186 3.8 18:38:14 14° NE 18:38:14 14° NE 18:39:14 10° NNE
CZ-2D R/B 3.9 18:33:54 10° SE 18:37:24 33° ENE 18:40:55 10° N
Envisat 3.5 18:32:57 10° SE 18:37:32 36° ENE 18:42:09 10° N
Meteor 1-18 Rocket 4.2 18:33:50 10° N 18:39:24 59° ENE 18:44:51 10° SSE
Cosmos 1812 2.7 18:35:40 10° N 18:39:33 89° E 18:43:25 10° S
USA 215 3.5 18:34:23 11° ENE 18:40:26 51° SE 18:46:44 10° SSW
USA 32 4.4 18:35:35 10° SSE 18:40:27 41° E 18:45:21 10° NNE
SeaSat 1 2.7 18:35:58 10° SE 18:40:40 47° ENE 18:45:25 10° NNW
ERS-2 2.0 18:38:40 10° SSE 18:42:21 78° ENE 18:46:03 10° N
Cosmos 1633 2.4 18:42:58 10° S 18:46:29 66° E 18:50:02 10° NNE
Cosmos 2333 Rocket 4.5 18:42:40 10° NW 18:47:21 27° WSW 18:52:00 10° SSW
HJ-1C 3.4 18:44:27 10° SSE 18:47:48 59° ENE 18:51:12 10° N
Cosmos 1378 Rocket 3.5 18:44:55 10° N 18:49:20 68° E 18:53:43 10° SSE
NOSS 3-2 (C) 3.8 18:45:39 10° SW 18:51:35 67° NW 18:58:14 10° NNE
Sich 1 Rocket 3.7 18:48:35 10° S 18:52:58 52° E 18:57:19 10° NNE
Cosmos 2082 3.9 18:48:06 10° SSW 18:53:42 71° WNW 18:59:22 10° NNE
Cosmos 1464 Rocket 3.9 18:48:11 10° N 18:54:20 80° E 19:00:28 10° S
Meteor 1-25 Rocket 4.1 18:49:12 10° S 18:54:43 79° E 19:00:18 10° NNE
Cosmos 1782 Rocket 3.9 18:52:05 10° SSE 18:56:17 42° E 19:00:28 10° NNE
Tiangong 2 2.6 18:57:42 10° W 19:00:33 30° SSW 19:01:40 23° SSE
Cosmos 1437 Rocket 3.0 18:59:11 10° SSE 19:03:03 46° E 19:06:59 10° NNE
Meteor 2-4 Rocket 4.4 18:58:27 10° N 19:03:40 32° ENE 19:04:43 30° E
Cosmos 44 Rocket 3.3 18:58:57 10° NW 19:04:00 90° ENE 19:07:57 17° SSE
FREGAT/IRIS 3.6 19:01:15 10° S 19:04:07 46° W 19:07:00 10° NNW
Cosmos 1939 Rocket 3.8 19:07:20 31° NE 19:07:20 31° NE 19:10:20 10° N
USA 267 3.7 19:11:39 30° E 19:14:32 47° NNE 19:20:44 10° NW
ATLAS CENTAUR R/B 3.5 19:16:37 10° N 19:17:56 14° NNE 19:17:56 14° NNE
CENTAUR R/B 2.4 19:14:10 10° SSW 19:20:11 87° SE 19:26:24 13° NE
Cosmos 1331 Rocket 4.4 19:18:15 10° N 19:23:12 41° ENE 19:23:12 41° ENE
Spot 2 Rocket 3.5 19:27:13 52° E 19:27:35 53° ENE 19:32:31 10° N
Cosmos 2034 Rocket 4.2 19:22:39 10° N 19:29:03 77° W 19:35:24 10° S
Geosat 3.9 19:28:15 45° ENE 19:29:35 63° ESE 19:34:33 10° SSW
Cosmos 1048 Rocket 4.0 19:25:36 10° SSW 19:30:56 81° WNW 19:36:16 10° NNE
Iridium 4 Rocket 4.4 19:29:55 10° NNW 19:34:40 45° W 19:38:59 10° SSW
SJ-6B 4.3 19:36:48 10° SSW 19:40:16 35° W 19:43:48 10° NNW
Cosmos 1943 3.8 19:36:40 10° NNW 19:41:14 39° NE 19:41:14 39° NE
Cosmos 1634 Rocket 3.9 19:37:19 10° N 19:43:25 58° E 19:43:38 58° E
Cosmos 2346 Rocket 4.3 19:38:50 10° S 19:45:03 77° E 19:51:13 10° N
Cosmos 921 Rocket 3.8 19:40:44 10° NNW 19:45:09 53° WSW 19:46:58 31° SSW
Resurs 1-3 3.6 19:47:28 76° WNW 19:47:28 76° WNW 19:51:40 10° NNW
Cosmos 1816 Rocket 4.5 19:41:02 10° S 19:47:24 87° W 19:53:48 10° N
SL-8 R/B 3.7 19:43:52 10° WSW 19:48:35 72° NNW 19:48:35 72° NNW
CZ-4C R/B 3.3 19:42:41 10° NNW 19:49:16 42° NE 19:49:51 41° NE
Meteor 1-13 Rocket 4.1 19:50:14 10° NNW 19:55:48 81° W 19:57:02 55° S
Resurs 01 Rocket 2.0 19:56:47 61° W 19:56:47 61° W 20:00:56 10° NNW
Cosmos 2227 Rocket 4.5 19:52:21 10° W 19:56:36 21° NW 20:00:50 10° N
SL-16 R/B 4.0 19:53:57 10° NW 19:58:48 30° WSW 20:03:36 10° SSW
Cosmos 1975 Rocket 4.4 19:58:01 10° NNW 20:02:09 39° W 20:04:06 25° SW
Cosmos 1603 4.0 20:11:51 10° NNW 20:17:18 62° WSW 20:17:18 62° WSW
SeaSat 1 4.4 20:15:29 15° SSW 20:18:22 25° WSW 20:22:25 10° NW
USA 215 3.7 20:21:44 44° NNE 20:23:29 56° NNW 20:29:50 10° WSW
H-2A R/B 4.4 20:43:15 16° N 20:43:15 16° N 20:44:22 10° N
USA 267 3.9 20:58:59 50° W 20:58:59 50° W 21:03:54 10° NW
CENTAUR R/B 4.3 21:06:26 10° W 21:11:50 27° NNW 21:13:41 24° N
CZ-4C R/B 4.1 21:31:06 10° NW 21:35:04 35° WNW 21:35:04 35° WNW
